Location: Unspecified
(48.1170°N, 0.0000°E)
Time: 12:14:47
(UTC+00:00)

JY1SAT - Pass Details

Date: 20 September 2019
Orbit: 572 x 591 km, 97.7° (Epoch: 22 October)

Event Time Altitude Azimuth Distance (km) Brightness Sun altitude
Exits shadow 20:52:12 16° 21° (NNE) 1,563 ? -27.2°
Drops below altitude 10° 20:53:15 10° 11° (N) 1,896 ? -27.3°
Sets 20:55:42 0° 358° (N) 2,803 ? -27.7°
